Santuari del Far - Susqueda





Hora UTC 11:30
Temperatura 7.9 ºC
Humitat 95.0 %
Pressió 1011.4 hPa
Pluja 0.4 mm
Velocitat vent 3.2 km/h
Direcció vent N

Dades diàries 2021-05-14



Hora UTC (hivern +1h; estiu +2h)
Temperatura (ºC) Humitat (%) Pressió (hPa) Velocitat vent (km/h) Precipitació (mm)
Hora UTC Aire Humitat Pressió Vel. Dir. Vel. Max Dir. Intent. màx 5 min.
00:05 7.7 86.0 1009.2 1.6 N 1.6 0.0
00:10 7.7 86.0 1009.1 0.0 N 4.8 0.0
00:15 7.6 87.0 1009.0 1.6 N 6.4 0.0
00:20 7.5 87.0 1009.0 1.6 N 6.4 0.0
00:25 7.4 87.0 1009.2 4.8 N 8.0 0.0
00:30 7.4 88.0 1009.1 0.0 N 8.0 0.0
00:35 7.4 88.0 1009.1 1.6 N 4.8 0.0
00:40 7.4 89.0 1009.1 1.6 N 4.8 0.0
00:45 7.4 89.0 1009.1 1.6 N 4.8 0.0
00:50 7.4 89.0 1009.1 3.2 N 4.8 0.0
00:55 7.5 89.0 1009.0 1.6 N 4.8 0.0
01:00 7.5 90.0 1009.0 0.0 N 4.8 0.0
01:05 7.6 90.0 1008.7 4.8 N 8.0 0.0
01:10 7.6 90.0 1008.7 0.0 N 6.4 0.0
01:15 7.5 90.0 1008.8 0.0 N 6.4 0.0
01:20 7.5 90.0 1008.6 3.2 N 4.8 0.0
01:25 7.5 90.0 1008.4 1.6 N 4.8 0.0
01:30 7.6 91.0 1008.5 1.6 N 4.8 0.0
01:35 7.6 91.0 1008.5 1.6 N 6.4 0.0
01:40 7.5 91.0 1008.5 1.6 N 6.4 0.0
01:45 7.5 91.0 1008.6 0.0 N 4.8 0.0
01:50 7.4 91.0 1008.4 1.6 N 4.8 0.0
01:55 7.4 92.0 1008.5 3.2 N 4.8 0.0
02:00 7.4 92.0 1008.5 3.2 N 4.8 0.0
02:05 7.4 92.0 1008.5 1.6 N 3.2 0.0
02:10 7.3 92.0 1008.5 1.6 N 6.4 0.0
02:15 7.3 92.0 1008.5 1.6 N 6.4 0.0
02:20 7.4 92.0 1008.6 1.6 N 3.2 0.0
02:25 7.4 92.0 1008.6 1.6 N 4.8 0.0
02:30 7.4 92.0 1008.6 0.0 N 3.2 0.0
02:35 7.4 93.0 1008.6 1.6 N 3.2 0.0
02:40 7.4 92.0 1008.6 0.0 N 3.2 0.0
02:45 7.4 92.0 1008.5 0.0 N 3.2 0.0
02:50 7.4 93.0 1008.5 1.6 N 1.6 0.0
02:55 7.4 93.0 1008.6 3.2 N 3.2 0.0
03:00 7.4 93.0 1008.5 6.4 N 6.4 0.0
03:05 7.4 93.0 1008.5 3.2 N 6.4 0.0
03:10 7.3 93.0 1008.3 3.2 N 6.4 0.0
03:15 7.3 93.0 1008.3 1.6 N 4.8 0.0
03:20 7.3 92.0 1008.3 3.2 N 4.8 0.0
03:25 7.3 92.0 1008.4 1.6 N 4.8 0.0
03:30 7.3 92.0 1008.5 1.6 N 3.2 0.0
03:35 7.4 92.0 1008.5 4.8 N 4.8 0.0
03:40 7.3 92.0 1008.4 3.2 N 6.4 0.0
03:45 7.4 92.0 1008.6 3.2 N 6.4 0.0
03:50 7.4 92.0 1008.4 3.2 N 4.8 0.0
03:55 7.4 92.0 1008.5 3.2 N 4.8 0.0
04:00 7.4 92.0 1008.6 4.8 N 4.8 0.0
04:05 7.4 92.0 1008.5 4.8 N 4.8 0.0
04:10 7.4 92.0 1008.4 3.2 N 4.8 0.0
04:15 7.4 92.0 1008.5 3.2 N 4.8 0.0
04:20 7.3 92.0 1008.4 3.2 N 6.4 0.0
04:25 7.3 93.0 1008.5 3.2 N 4.8 0.0
04:30 7.2 93.0 1008.5 3.2 N 4.8 0.0
04:35 7.2 93.0 1008.5 3.2 N 6.4 0.0
04:40 7.2 93.0 1008.4 3.2 N 6.4 0.0
04:45 7.2 93.0 1008.5 4.8 N 8.0 0.0
04:50 7.2 93.0 1008.3 3.2 N 6.4 0.0
04:55 7.2 93.0 1008.3 3.2 N 4.8 0.0
05:00 7.3 93.0 1008.4 1.6 N 4.8 0.0
05:05 7.2 93.0 1008.5 1.6 N 4.8 0.2
05:10 7.2 93.0 1008.5 1.6 N 4.8 0.0
05:15 7.3 93.0 1008.6 3.2 N 3.2 0.0
05:20 7.3 93.0 1008.7 3.2 N 4.8 0.0
05:25 7.3 93.0 1008.6 1.6 N 4.8 0.0
05:30 7.3 93.0 1008.6 3.2 N 4.8 0.0
05:35 7.3 93.0 1008.7 3.2 N 4.8 0.0
05:40 7.3 94.0 1008.8 1.6 N 4.8 0.0
05:45 7.4 94.0 1008.7 0.0 N 4.8 0.0
05:50 7.5 94.0 1008.8 1.6 N 4.8 0.0
05:55 7.6 94.0 1008.9 1.6 N 4.8 0.0
06:00 7.6 94.0 1008.8 4.8 N 4.8 0.0
06:05 7.4 93.0 1008.9 1.6 N 4.8 0.0
06:10 7.4 93.0 1008.8 0.0 N 4.8 0.0
06:15 7.4 94.0 1008.9 3.2 N 4.8 0.0
06:20 7.4 94.0 1009.0 4.8 N 6.4 0.0
06:25 7.6 94.0 1009.0 1.6 N 6.4 0.0
06:30 7.8 94.0 1008.8 0.0 N 4.8 0.0
06:35 7.9 94.0 1008.9 0.0 N 4.8 0.0
06:40 7.8 94.0 1008.9 4.8 N 4.8 0.2
06:45 7.7 94.0 1009.0 1.6 N 4.8 0.0
06:50 7.6 94.0 1008.9 1.6 N 4.8 0.0
06:55 7.6 94.0 1009.1 0.0 N 4.8 0.0
07:00 7.5 94.0 1009.3 3.2 N 4.8 0.0
07:05 7.2 93.0 1009.3 1.6 N 4.8 0.0
07:10 7.1 93.0 1009.3 1.6 N 3.2 0.0
07:15 6.9 93.0 1009.6 1.6 N 3.2 0.0
07:20 6.9 94.0 1009.6 1.6 N 3.2 0.0
07:25 7.0 94.0 1009.7 3.2 N 6.4 0.0
07:30 7.1 94.0 1009.8 0.0 N 6.4 0.0
07:35 7.2 94.0 1009.8 1.6 N 6.4 0.0
07:40 7.3 95.0 1009.8 0.0 N 6.4 0.0
07:45 7.3 95.0 1009.9 0.0 N 3.2 0.0
07:50 7.5 95.0 1009.9 1.6 N 3.2 0.0
07:55 7.6 95.0 1009.8 0.0 N 3.2 0.0
08:00 7.7 95.0 1009.9 0.0 N 1.6 0.0
08:05 7.7 95.0 1009.9 0.0 N 3.2 0.0
08:10 7.7 94.0 1010.2 1.6 N 3.2 0.0
08:15 7.6 95.0 1010.3 0.0 N 3.2 0.0
08:20 7.5 95.0 1010.4 3.2 N 6.4 0.0
08:25 7.4 94.0 1010.4 3.2 N 6.4 0.0
08:30 7.3 95.0 1010.1 1.6 N 9.7 0.0
08:35 7.4 95.0 1010.2 0.0 N 8.0 0.0
08:40 7.4 95.0 1010.2 0.0 N 4.8 0.0
08:45 7.7 95.0 1010.2 3.2 N 4.8 0.0
08:50 8.0 95.0 1010.4 3.2 N 4.8 0.0
08:55 8.4 95.0 1010.4 3.2 N 4.8 0.0
09:00 8.8 96.0 1010.4 3.2 N 4.8 0.0
09:05 9.2 96.0 1010.4 1.6 N 4.8 0.0
09:10 9.3 96.0 1010.6 1.6 N 4.8 0.0
09:15 9.4 95.0 1010.7 3.2 N 6.4 0.0
09:20 9.5 95.0 1010.6 0.0 N 6.4 0.0
09:25 9.8 95.0 1010.9 1.6 N 4.8 0.0
09:30 10.1 95.0 1010.6 1.6 N 6.4 0.0
09:35 10.2 94.0 1010.7 3.2 N 6.4 0.0
09:40 10.1 94.0 1010.8 1.6 N 6.4 0.0
09:45 10.2 93.0 1010.9 0.0 N 3.2 0.0
09:50 10.3 93.0 1010.9 3.2 N 4.8 0.0
09:55 10.1 91.0 1010.9 1.6 N 4.8 0.0
10:00 9.8 90.0 1010.9 1.6 N 4.8 0.0
10:05 9.5 91.0 1010.9 3.2 N 4.8 0.0
10:10 9.2 91.0 1010.9 0.0 N 8.0 0.0
10:15 9.1 92.0 1011.0 1.6 N 9.7 0.0
10:20 8.9 92.0 1011.0 3.2 N 11.3 0.0
10:25 8.7 92.0 1010.9 4.8 N 11.3 0.0
10:30 8.4 92.0 1010.6 4.8 N 9.7 0.0
10:35 8.3 93.0 1010.9 0.0 N 14.5 0.0
10:40 8.3 94.0 1010.8 0.0 N 9.7 0.0
10:45 8.3 94.0 1011.0 3.2 N 9.7 0.0
10:50 8.3 94.0 1011.1 0.0 N 6.4 0.0
10:55 8.5 94.0 1011.3 1.6 N 12.9 0.0
11:00 8.4 94.0 1010.9 11.3 N 12.9 0.0
11:05 8.3 94.0 1011.3 3.2 N 11.3 0.0
11:10 8.3 94.0 1010.9 9.7 N 14.5 0.0
11:15 8.1 94.0 1011.0 4.8 N 14.5 0.0
11:20 7.9 94.0 1011.3 11.3 N 12.9 0.0
11:25 8.0 95.0 1011.3 4.8 N 14.5 0.0
11:30 7.9 95.0 1011.4 3.2 N 14.5 0.0
Màxima 10.3 96.0 1011.4 11.3 N 14.5 0.2
Mínima 6.9 86.0 1008.3
Total 0.4